Temperature
16 16 16 17 17 17 17 17 17 17 17 17 17 17 17 17 17 16 16 15 15 15 14 13 13 12 12 12 11 11 11 11 11 11 11 11 10 9 9 9 8 8 7
15 16 16 16 16 17 17 17 17 17 17 17 17 17 17 17 17 17 17 16 15 15 14 14 13 13 12 11 11 11 11 11 11 11 11 10 10 10 9 9 8 8 7
14 15 16 16 16 16 16 16 17 17 17 17 17 16 16 16 16 16 16 16 16 15 15 14 14 13 12 12 12 11 11 11 11 11 11 11 11 10 9 9 9 8 7
13 14 14 15 15 16 16 16 16 16 16 16 16 16 16 15 16 16 16 16 16 16 15 15 14 14 13 12 12 11 11 11 11 11 11 11 11 10 10 9 9 8 8
13 13 14 14 14 15 15 15 16 16 16 16 16 16 16 16 16 16 16 16 16 16 15 15 15 14 14 13 12 12 11 11 11 11 11 10 10 10 10 9 9 8 7
13 13 13 14 14 14 14 14 15 15 15 16 16 16 16 16 15 15 15 15 15 15 15 15 15 14 14 13 12 12 11 11 11 11 11 10 10 10 9 9 9 8 7
12 12 12 12 13 13 13 14 14 14 15 15 15 15 15 15 15 15 15 15 15 15 15 15 15 14 14 13 12 11 11 11 11 10 10 10 9 9 9 8 8 7 6
11 11 11 11 11 11 12 12 13 13 14 14 14 15 15 15 15 15 14 14 15 15 15 15 15 14 14 13 12 11 11 10 10 10 9 9 8 8 8 7 7 6 5
11 10 10 10 10 10 10 11 11 12 12 13 13 14 14 14 14 14 14 14 14 14 14 14 14 14 14 13 12 11 10 10 9 8 8 8 7 7 6 6 5 4 3
10 9 9 9 9 9 9 10 10 10 11 12 12 13 13 13 13 13 13 13 13 13 14 14 14 14 13 12 11 10 9 8 8 7 6 6 6 5 5 4 4 3 2
8 8 8 8 8 8 8 8 9 9 10 11 11 12 12 13 13 13 12 12 12 12 12 13 13 13 12 11 10 9 8 7 6 6 5 5 4 4 3 3 2 1 1
7 7 7 7 7 7 7 8 8 8 9 10 10 11 11 12 12 12 11 11 11 10 10 11 11 11 10 10 9 8 6 6 5 4 4 3 3 2 2 1 1 0 -0
6 6 6 6 6 6 7 7 7 8 8 9 9 10 10 11 11 10 10 9 9 9 9 9 9 9 9 8 7 5 5 4 4 3 3 2 2 1 0 0 -0 -1 -1
4 4 5 5 5 5 6 6 6 7 7 8 8 9 9 9 9 9 8 8 8 8 8 8 8 8 7 6 5 4 4 3 3 2 2 1 1 -0 -1 -1 -1 -2 -2
3 3 3 4 4 5 5 5 5 6 6 6 7 7 8 8 7 7 7 7 7 7 7 7 6 6 4 3 3 3 3 3 2 2 1 1 0 -1 -1 -1 -2 -3 -4
2 2 2 3 3 3 3 4 4 4 5 5 5 5 6 6 6 6 6 6 5 5 5 4 3 3 2 2 2 2 2 2 1 1 0 -0 -1 -1 -2 -2 -3 -4 -5
1 1 1 2 2 2 2 2 3 3 3 3 3 4 4 4 4 4 4 3 3 3 2 1 1 1 1 1 1 1 1 1 0 -0 -1 -2 -2 -2 -2 -3 -4 -5 -5
0 0 1 1 1 1 1 1 2 2 2 2 2 2 2 2 2 2 1 1 1 0 0 0 0 1 0 1 1 1 0 -0 -1 -1 -1 -2 -2 -3 -4 -5 -5 -6 -6
0 0 0 0 0 0 0 0 1 1 0 0 0 0 0 1 0 0 -0 -0 -0 -0 -0 -0 0 0 0 0 -0 -0 -1 -1 -2 -2 -3 -3 -4 -4 -5 -7 -8 -8 -7
1 0 0 0 0 0 -0 0 -0 -0 -0 -1 -1 -0 -0 -0 -0 -0 -0 -1 -0 -0 -0 -0 -0 -0 -1 -1 -1 -1 -2 -2 -3 -4 -4 -5 -5 -6 -7 -8 -9 -8 -8
1 1 1 1 0 0 -0 0 -0 -0 -0 -0 -0 -0 -0 -0 -0 -0 -0 -0 -0 -0 -0 -1 -1 -1 -1 -2 -2 -3 -3 -4 -5 -5 -5 -6 -6 -8 -9 -9 -9 -9 -9
2 2 2 1 1 1 1 1 0 0 0 0 0 0 0 -0 -0 -0 -0 -1 -1 -1 -1 -1 -2 -2 -3 -3 -4 -5 -5 -6 -6 -6 -7 -7 -8 -9 -9 -9 -9 -9 -9
3 2 2 2 2 1 1 1 1 1 1 1 1 0 0 -0 -0 -0 -1 -1 -1 -1 -2 -2 -3 -3 -4 -4 -5 -5 -6 -7 -7 -8 -8 -9 -9 -9 -8 -8 -8 -8 -8
3 3 3 3 2 2 2 1 1 1 1 1 0 0 -0 -0 -1 -1 -1 -2 -2 -2 -2 -3 -3 -4 -4 -5 -6 -7 -7 -8 -8 -8 -8 -8 -8 -8 -8 -8 -8 -8 -9
3 3 3 3 2 2 2 1 1 0 1 0 0 -0 -1 -1 -1 -1 -2 -2 -2 -3 -3 -3 -4 -5 -5 -6 -8 -8 -8 -8 -9 -9 -8 -8 -8 -8 -8 -8 -8 -8 -8
3 3 3 3 2 2 1 1 0 -0 -0 0 -0 -1 -1 -2 -2 -2 -2 -3 -3 -3 -4 -4 -5 -5 -6 -7 -7 -8 -8 -8 -8 -9 -8 -9 -9 -9 -9 -8 -8 -8 -8
Wind_Speed
10 8 9 9 8 8 10 11 11 12 11 10 13 13 15 13 12 12 15 18 18 19 16 9 10 11 11 11 10 6 5 3 3 4 3 3 3 2 1 2 3 3 3
11 9 8 8 8 9 9 10 11 11 12 12 13 10 11 10 13 11 11 17 18 19 17 13 13 12 10 11 9 7 5 3 4 4 4 2 1 1 1 1 3 3 4
12 11 10 8 8 8 9 9 11 11 12 12 8 5 5 4 6 9 12 13 17 19 17 15 14 14 13 13 12 10 9 6 3 3 4 5 5 3 0 1 1 3 2
8 8 9 9 8 8 7 8 9 10 10 10 10 12 12 13 13 13 13 13 16 18 19 17 15 16 13 14 13 11 7 8 5 3 1 2 4 5 3 1 1 1 3
7 7 7 8 8 7 6 5 6 8 9 9 12 13 15 14 10 9 11 13 13 15 16 16 15 16 14 14 14 11 9 6 7 6 4 3 3 2 4 3 3 2 2
9 9 9 9 8 8 7 6 5 7 8 9 11 13 16 15 11 12 13 12 9 11 14 14 15 15 13 14 14 13 13 8 8 6 5 5 4 4 4 4 3 3 2
10 12 13 13 12 12 10 8 7 8 7 8 9 12 15 15 16 15 15 13 10 11 16 16 15 14 12 12 11 12 12 10 11 8 5 4 4 4 4 4 3 2 2
10 10 11 11 10 11 10 9 9 9 8 7 9 10 11 10 10 13 12 14 14 15 15 16 14 13 12 12 11 9 9 8 9 8 7 6 5 4 4 4 4 2 2
11 11 11 11 11 11 11 9 9 9 9 8 8 8 8 9 10 11 11 10 10 9 12 13 12 11 12 12 13 9 10 10 8 8 8 5 4 4 3 4 4 5 3
13 13 12 12 11 11 11 10 9 9 9 8 7 6 7 8 8 8 10 10 9 9 12 13 13 12 12 12 11 11 10 11 9 7 8 6 3 3 3 3 3 3 5
11 11 12 12 12 11 11 10 9 9 8 7 7 6 5 5 5 6 8 7 7 10 12 12 13 13 13 13 12 12 12 12 10 8 7 6 4 3 3 3 3 3 4
10 11 12 12 12 11 11 10 10 9 8 7 6 5 3 2 3 4 5 7 9 10 11 12 12 13 13 13 14 14 12 12 11 9 7 5 4 4 3 3 3 3 4
11 11 11 11 11 11 11 10 9 8 8 6 5 3 1 1 3 5 7 9 10 11 12 12 13 13 13 13 13 14 13 11 10 8 7 5 4 3 3 3 3 3 4
10 11 11 11 11 10 10 11 10 9 7 6 5 3 2 3 5 7 9 10 11 12 12 12 13 13 14 14 15 14 14 12 10 8 6 5 3 3 3 3 4 4 4
11 11 12 11 11 11 11 10 10 9 7 7 6 6 6 7 8 10 11 12 12 13 14 15 14 14 13 13 15 14 13 12 10 7 6 4 3 3 4 4 5 5 4
10 11 11 11 10 10 10 10 10 9 8 9 9 8 10 11 12 12 13 14 14 14 15 15 15 14 13 19 19 15 11 9 8 6 4 3 3 2 2 5 6 6 5
9 9 9 9 9 9 9 9 9 9 10 11 11 11 12 13 13 14 15 15 14 15 15 14 15 16 17 20 19 16 10 8 7 6 4 3 2 2 3 6 8 8 11
7 7 7 7 7 7 8 8 8 9 10 10 10 11 11 13 13 14 14 14 13 13 13 13 14 14 15 18 17 15 10 8 6 5 4 2 1 3 5 5 5 5 6
4 4 5 6 6 7 7 7 8 9 9 9 9 10 10 11 12 13 13 12 12 12 11 11 11 12 12 15 14 12 7 6 5 3 2 1 3 8 9 5 4 6 6
3 4 5 6 7 7 7 7 8 9 9 9 9 9 10 11 11 12 11 10 10 11 10 10 9 9 8 11 11 9 5 4 3 1 1 4 6 9 10 5 4 6 7
3 4 5 6 6 6 7 8 8 9 8 8 9 10 10 10 11 11 10 10 10 10 10 9 8 7 7 7 8 8 4 3 2 2 2 3 8 10 11 10 3 8 10
4 5 5 6 6 6 7 8 8 7 8 9 10 11 10 9 9 10 10 9 9 9 8 8 7 6 6 7 7 6 3 2 2 2 3 5 10 11 11 9 11 15 11
4 4 5 6 6 7 6 8 6 7 8 10 10 10 10 9 8 8 8 7 6 6 6 5 5 4 4 5 6 5 5 6 2 3 7 8 10 10 8 11 13 9 4
4 4 5 6 6 6 6 6 6 7 9 10 9 8 8 8 7 6 6 6 5 5 5 4 4 3 2 2 2 2 3 4 5 4 4 6 8 8 9 8 7 5 5
4 4 5 6 5 5 6 6 6 7 9 8 7 7 7 7 7 7 5 5 3 4 5 3 3 2 0 2 4 2 2 3 3 2 2 3 3 5 5 5 5 5 5
5 6 6 6 6 6 6 5 5 6 8 7 6 5 5 5 5 5 5 8 7 8 7 4 3 1 1 4 6 8 8 9 10 5 3 3 4 5 6 7 7 7 6
Wind_Direction
268 255 245 246 245 237 228 228 226 222 210 203 207 211 215 214 211 210 205 199 195 189 184 177 170 171 174 173 157 134 128 128 144 115 88 47 51 98 113 159 159 151 142
294 284 264 254 243 237 228 226 225 223 212 209 208 209 211 215 213 208 202 198 193 188 187 179 179 179 173 166 165 149 137 136 167 144 131 134 341 317 49 119 161 152 141
298 303 303 288 274 259 242 234 227 225 218 211 205 198 194 195 198 205 207 199 192 189 189 184 179 181 178 180 179 167 153 151 174 187 152 156 200 205 304 30 124 150 140
315 314 318 315 302 281 268 248 239 233 227 213 204 202 209 215 213 211 210 200 193 191 191 186 183 183 184 184 183 176 163 146 154 157 114 123 143 151 177 261 247 185 172
343 344 340 326 317 313 304 282 262 248 238 222 212 211 218 221 214 206 203 200 196 194 191 186 186 187 187 184 180 176 170 159 156 156 149 127 80 106 147 187 221 247 220
351 354 351 351 346 340 333 323 301 276 258 238 224 218 220 219 208 203 204 201 195 194 193 189 190 190 187 184 182 180 177 169 156 154 152 153 155 172 159 163 181 214 256
352 353 351 349 344 340 334 325 314 295 281 260 242 228 224 221 215 210 208 201 195 197 197 193 192 190 188 182 175 175 176 167 160 156 149 141 138 140 139 136 147 184 297
340 338 333 330 327 323 322 319 312 298 288 271 258 247 234 224 220 214 209 206 206 205 197 193 191 185 178 174 168 167 162 154 148 144 136 132 129 128 134 140 138 148 280
326 326 324 322 318 314 309 306 303 298 293 281 269 261 242 224 217 210 208 207 205 194 185 183 179 172 168 164 161 160 152 142 133 130 123 117 113 111 116 127 142 156 201
323 325 325 321 316 310 304 303 295 289 287 286 273 262 249 232 220 206 205 201 189 174 169 171 166 160 156 155 150 144 140 130 121 117 114 104 106 117 125 140 149 162 177
317 322 321 319 315 314 313 311 307 299 296 294 287 273 260 239 212 206 203 187 168 160 163 163 158 154 151 149 144 138 135 125 118 113 118 121 127 139 151 148 161 180 178
325 324 323 323 323 323 323 320 316 310 303 303 300 286 266 227 197 186 166 151 149 150 150 148 148 147 145 143 140 134 127 124 120 118 122 131 138 158 165 173 189 201 203
332 331 329 330 329 331 332 329 327 322 321 323 320 318 323 144 151 140 135 138 138 138 139 141 141 139 136 132 127 122 117 114 116 125 134 139 145 176 182 192 206 217 222
335 336 334 334 337 341 343 341 340 339 339 349 357 10 51 102 118 119 121 124 127 128 129 127 126 126 124 121 118 114 111 110 109 111 112 115 138 188 200 210 220 224 231
342 341 339 341 347 351 353 352 352 357 9 25 34 43 65 82 91 97 103 107 110 113 115 114 113 113 113 116 116 114 114 115 112 103 98 103 134 205 209 221 223 219 228
338 340 344 350 353 355 356 2 7 11 29 47 50 56 70 78 84 90 95 97 99 103 106 109 110 107 108 113 112 112 110 111 112 109 101 107 100 62 346 301 278 247 235
336 343 346 350 355 -0 6 13 18 27 43 53 57 62 74 80 84 89 92 94 97 99 100 103 104 104 109 109 106 104 104 104 107 110 109 103 68 26 311 297 294 292 291
342 347 347 356 5 11 18 25 34 43 51 58 63 70 78 84 87 90 92 95 96 97 99 100 102 104 107 106 104 106 106 108 113 121 127 131 289 295 283 258 256 262 270
350 353 356 6 14 21 26 37 45 50 55 59 66 73 83 88 90 91 92 94 97 96 95 97 99 101 106 109 113 115 114 113 116 122 139 228 269 294 299 287 261 270 272
14 16 13 21 27 28 34 47 49 52 54 59 66 72 79 84 86 87 88 89 91 92 91 88 89 97 106 120 125 123 112 116 125 159 248 293 301 302 306 296 276 283 281
42 41 36 33 30 34 47 55 52 49 52 62 69 72 74 79 82 83 83 87 89 90 90 90 82 76 82 99 112 128 123 141 169 215 249 274 308 311 312 319 320 300 306
62 56 53 43 37 42 58 64 55 53 62 68 69 67 68 72 78 83 82 85 94 97 96 92 79 57 49 64 74 82 78 76 167 255 266 279 306 321 328 330 316 314 324
86 75 74 63 49 47 61 71 60 65 74 74 72 72 71 68 72 82 87 82 81 90 90 89 84 66 45 39 50 42 18 355 335 276 307 319 331 340 340 325 324 334 337
105 95 90 81 66 58 65 71 75 79 83 80 74 72 74 70 62 66 73 81 84 88 92 95 94 75 42 3 325 307 307 317 319 317 337 351 350 344 333 331 331 321 304
124 113 110 104 95 83 75 72 81 93 91 84 79 75 74 76 71 70 75 87 88 114 114 116 127 126 181 301 348 6 313 314 315 20 50 359 345 340 331 323 318 312 314
136 127 123 120 113 103 92 84 91 102 104 95 85 82 81 80 81 81 73 79 90 88 99 132 152 218 312 358 5 353 353 353 348 11 360 341 334 326 322 319 317 313 306
Height
1475 1478 1479 1480 1481 1482 1483 1484 1486 1488 1490 1491 1492 1494 1496 1499 1501 1504 1507 1509 1511 1513 1516 1518 1521 1523 1525 1528 1530 1532 1534 1535 1536 1537 1538 1538 1539 1539 1539 1540 1540 1541 1541
1469 1470 1472 1473 1474 1475 1476 1477 1479 1481 1482 1484 1485 1487 1489 1491 1494 1497 1500 1503 1505 1507 1510 1512 1515 1517 1520 1523 1525 1527 1529 1530 1532 1533 1534 1535 1537 1535 1536 1537 1537 1537 1537
1464 1464 1465 1465 1466 1467 1468 1470 1472 1474 1475 1477 1479 1480 1482 1483 1486 1489 1492 1495 1498 1501 1504 1506 1509 1511 1514 1516 1519 1522 1524 1526 1527 1529 1531 1531 1530 1532 1533 1533 1533 1534 1533
1462 1462 1461 1461 1461 1461 1462 1463 1465 1467 1469 1470 1471 1472 1473 1474 1476 1481 1484 1487 1490 1493 1497 1499 1502 1505 1508 1510 1513 1516 1518 1520 1522 1524 1525 1527 1527 1528 1528 1529 1529 1529 1529
1461 1460 1459 1459 1459 1458 1458 1458 1459 1460 1462 1464 1465 1465 1466 1467 1470 1473 1476 1479 1481 1485 1489 1492 1495 1498 1501 1504 1507 1509 1512 1514 1516 1518 1520 1521 1522 1523 1524 1524 1525 1525 1525
1459 1458 1457 1456 1456 1455 1455 1455 1455 1455 1456 1457 1458 1458 1459 1460 1462 1464 1467 1470 1473 1476 1480 1484 1487 1490 1493 1496 1500 1503 1506 1508 1511 1513 1515 1516 1517 1518 1519 1519 1520 1520 1521
1458 1456 1455 1453 1452 1451 1451 1450 1450 1450 1451 1451 1451 1451 1452 1453 1454 1455 1458 1461 1463 1466 1470 1474 1478 1482 1485 1489 1493 1496 1499 1502 1504 1506 1509 1511 1512 1513 1514 1515 1515 1515 1515
1458 1456 1454 1452 1450 1448 1446 1445 1445 1444 1445 1445 1445 1445 1445 1446 1446 1448 1450 1453 1455 1458 1462 1466 1470 1474 1478 1482 1485 1489 1493 1496 1498 1501 1503 1505 1506 1508 1509 1509 1510 1509 1509
1457 1454 1451 1449 1446 1443 1441 1440 1438 1438 1438 1438 1438 1438 1438 1439 1440 1441 1443 1445 1448 1451 1454 1458 1462 1466 1470 1474 1478 1482 1485 1489 1492 1495 1497 1499 1501 1502 1503 1504 1504 1505 1503
1455 1451 1448 1444 1441 1438 1435 1434 1432 1431 1431 1431 1431 1431 1432 1433 1434 1435 1436 1438 1441 1443 1446 1450 1454 1458 1462 1466 1471 1475 1478 1482 1485 1489 1491 1494 1496 1497 1498 1498 1498 1498 1498
1453 1449 1444 1440 1436 1433 1430 1427 1426 1425 1424 1424 1424 1425 1426 1427 1427 1429 1430 1432 1434 1437 1439 1443 1447 1450 1455 1459 1464 1468 1471 1475 1479 1482 1486 1489 1491 1493 1493 1493 1493 1493 1492
1450 1445 1441 1436 1432 1428 1425 1422 1420 1419 1418 1418 1418 1419 1420 1421 1422 1423 1424 1426 1428 1431 1434 1437 1441 1445 1449 1454 1458 1461 1466 1470 1474 1478 1481 1484 1486 1488 1488 1488 1488 1488 1486
1446 1442 1438 1434 1430 1426 1422 1419 1416 1414 1414 1413 1413 1413 1414 1415 1416 1417 1419 1421 1423 1426 1429 1433 1436 1440 1444 1448 1453 1457 1462 1466 1470 1474 1476 1479 1481 1483 1483 1483 1483 1482 1480
1444 1439 1435 1432 1428 1424 1420 1417 1413 1411 1410 1409 1409 1409 1410 1410 1411 1413 1415 1417 1420 1423 1426 1429 1433 1437 1440 1445 1449 1454 1459 1463 1466 1469 1472 1474 1476 1477 1477 1477 1476 1475 1474
1442 1438 1435 1431 1427 1423 1419 1416 1413 1410 1408 1406 1406 1405 1406 1407 1408 1410 1411 1414 1416 1419 1423 1426 1430 1434 1438 1443 1448 1452 1456 1460 1463 1466 1468 1470 1471 1471 1471 1471 1470 1469 1467
1441 1438 1434 1430 1426 1423 1419 1416 1413 1409 1407 1405 1404 1404 1404 1405 1406 1407 1409 1411 1414 1417 1421 1424 1428 1433 1438 1443 1448 1452 1455 1458 1461 1463 1464 1465 1465 1465 1465 1464 1464 1463 1461
1440 1437 1434 1430 1427 1424 1420 1417 1414 1411 1408 1406 1405 1404 1404 1405 1405 1407 1409 1411 1414 1417 1421 1426 1430 1435 1439 1444 1448 1451 1454 1456 1458 1459 1460 1461 1461 1460 1459 1458 1457 1457 1455
1440 1437 1434 1431 1428 1425 1422 1419 1416 1413 1410 1408 1407 1407 1407 1407 1408 1409 1411 1414 1417 1421 1425 1429 1434 1437 1441 1445 1448 1450 1452 1454 1455 1456 1457 1457 1456 1455 1454 1452 1451 1450 1449
1439 1437 1434 1432 1429 1426 1423 1421 1418 1416 1414 1412 1411 1411 1411 1411 1412 1414 1416 1419 1422 1425 1429 1433 1437 1439 1442 1445 1447 1448 1450 1452 1453 1454 1453 1452 1451 1450 1448 1447 1445 1443 1442
1439 1437 1435 1433 1430 1428 1426 1424 1422 1420 1418 1417 1417 1417 1417 1417 1418 1420 1422 1425 1428 1431 1434 1437 1439 1441 1442 1444 1446 1448 1449 1451 1451 1450 1449 1447 1446 1444 1443 1441 1439 1437 1435
1440 1438 1436 1434 1433 1431 1430 1428 1426 1425 1424 1424 1423 1423 1424 1424 1426 1427 1429 1432 1434 1435 1438 1439 1441 1442 1444 1445 1446 1447 1448 1448 1447 1446 1444 1442 1441 1439 1438 1437 1435 1432 1430
1441 1439 1438 1437 1436 1435 1434 1433 1431 1431 1431 1431 1430 1430 1431 1432 1433 1434 1435 1437 1439 1440 1441 1442 1443 1445 1446 1446 1447 1446 1446 1445 1443 1442 1440 1438 1437 1436 1434 1432 1429 1428 1426
1441 1441 1440 1440 1439 1439 1438 1437 1437 1437 1437 1437 1437 1437 1437 1438 1439 1440 1441 1442 1443 1444 1444 1445 1445 1446 1446 1446 1445 1444 1443 1441 1440 1437 1436 1435 1433 1431 1429 1427 1425 1423 1421
1442 1442 1442 1442 1442 1442 1442 1442 1442 1442 1442 1442 1442 1442 1443 1443 1444 1444 1445 1445 1446 1446 1446 1446 1445 1445 1445 1444 1443 1441 1440 1438 1436 1434 1433 1431 1429 1427 1425 1423 1422 1420 1418
1442 1443 1444 1444 1445 1445 1445 1446 1446 1447 1447 1446 1446 1446 1447 1447 1447 1447 1447 1447 1447 1447 1447 1446 1445 1444 1443 1442 1441 1439 1437 1435 1433 1431 1429 1427 1426 1424 1422 1421 1419 1417 1416
1442 1443 1444 1445 1446 1447 1448 1448 1449 1449 1450 1449 1449 1449 1449 1449 1449 1449 1448 1448 1447 1446 1445 1444 1443 1441 1441 1439 1438 1436 1434 1432 1431 1428 1426 1424 1423 1421 1419 1418 1416 1415 1413